Tracking 19146 objects as of 24-Apr-2018
HD Live streaming from Space Station
objects crossing your sky now

FENGYUN 1C DEB

Track FENGYUN 1C DEB now!
10-day predictions


NORAD ID: 30329
Int'l Code: 1999-025AAQ
Perigee: 849.7 km
Apogee: 1,060.9 km
Inclination: 99.2 °
Period: 104.0 minutes
Semi major axis: 7326 km
RCS: 0.035 m2 (small)
Launch date: May 10, 1999
Source: People's Republic of China (PRC)
Launch site: Taiyaun Space Center, China (TSC)

Note: This is SATELLITE DEBRIS
aabbcc
Your satellite tracking list
Your tracking list is empty




NASA's NSSDC Master Catalog

Two Line Element Set (TLE):
1 30329U 99025AAQ 18114.21889553  .00000086  00000-0  10809-3 0  9993
2 30329  99.2305  36.0019 0144164 298.6678 222.4111 13.84450763568005
Source of the keplerian elements: AFSPC